Location: Forli
(44.2227°N, 12.0407°E)
Time: 03:05:33
(UTC+02:00)

DX 1 - Pass Details

Date: 11 April 2026
Orbit: 593 x 604 km, 98.4° (Epoch: 19 May)

Event Time Altitude Azimuth Distance (km) Brightness Sun altitude
Rises 04:07:01 0° 15° (NNE) 2,843 ? -24.5°
Reaches altitude 10° 04:09:12 10° 18° (NNE) 1,936 ? -24.2°
Maximum altitude 04:13:23 72° 102° (ESE) 628 ? -23.6°
Enters shadow 04:13:45 67° 143° (SE) 646 ? -23.5°
